Weather reports worldwide

Advertisment
Amsterdam Airport, Netherlands (6240): temperature & dewpoint: 12.10.2018 19:00:00 - 18.10.2018 19:00:00 (CEST)Amsterdam Airport, Netherlands (6240): temperature 5cm: 12.10.2018 19:00:00 - 18.10.2018 19:00:00 (CEST)Amsterdam Airport, Netherlands (6240): wind speed & gusts: 12.10.2018 19:00:00 - 18.10.2018 19:00:00 (CEST)Amsterdam Airport, Netherlands (6240): wind direction: 12.10.2018 19:00:00 - 18.10.2018 19:00:00 (CEST)Amsterdam Airport, Netherlands (6240): reduced air pressure: 12.10.2018 19:00:00 - 18.10.2018 19:00:00 (CEST)Amsterdam Airport, Netherlands (6240): visibility: 12.10.2018 19:00:00 - 18.10.2018 19:00:00 (CEST)Amsterdam Airport, Netherlands (6240): precipitation: 12.10.2018 19:00:00 - 18.10.2018 19:00:00 (CEST)
Date & Time tt [°C] td [°C] tt 5cm [°C] ff [km/h] ff [kn] fx [km/h] fx [kn] dd ppp [hPa] vv [km] rr [mm]
18.10.2018 19:00:00 - - - - - - - - - - -
18.10.2018 18:00:00 14,0 7,9 13,1 15 8 25 14 NE 1025,3 10 0,0
18.10.2018 17:00:00 13,8 8,4 13,6 16 9 25 14 NNE 1025,4 10 0,0
18.10.2018 16:00:00 15,3 8,8 15,4 16 9 32 18 NE 1025,5 10 0,0
18.10.2018 15:00:00 15,0 8,5 14,2 22 12 32 18 NNE 1025,7 10 0,0
18.10.2018 14:00:00 14,9 8,3 14,8 16 9 29 16 NE 1025,6 10 0,0
18.10.2018 13:00:00 15,2 8,8 15,3 18 10 32 18 NNE 1025,9 10 0,0
18.10.2018 12:00:00 14,4 9,1 14,3 16 9 29 16 N 1025,8 10 0,0
18.10.2018 11:00:00 14,6 10,6 13,9 15 8 25 14 N 1025,5 10 0,0
18.10.2018 10:00:00 13,7 10,7 12,7 13 7 22 12 N 1025,2 10 0,0
18.10.2018 09:00:00 12,1 10,7 10,3 9 5 14 8 N 1024,7 10 0,0
18.10.2018 08:00:00 10,9 10,0 9,0 9 5 14 8 NNW 1024,1 10 0,0
18.10.2018 07:00:00 12,6 10,8 11,1 9 5 22 12 N 1023,7 10 0,0
18.10.2018 06:00:00 13,7 11,1 12,6 15 8 22 12 NNE 1023,5 10 0,0
18.10.2018 05:00:00 13,9 11,9 12,7 13 7 18 10 N 1023,3 10 0,0
18.10.2018 04:00:00 13,6 12,8 12,7 9 5 14 8 N 1023,1 10 0,0
18.10.2018 03:00:00 11,9 11,4 11,5 5 3 11 6 NNW 1022,9 10 0,0
18.10.2018 02:00:00 11,7 11,5 10,1 4 2 4 2 NNW 1022,8 10 0,0
18.10.2018 01:00:00 10,1 9,8 5,0 2 1 4 2 NW 1022,6 10 0,0
18.10.2018 00:00:00 10,8 10,4 5,2 2 1 7 4 N 1022,2 10 0,0
17.10.2018 23:00:00 11,4 10,6 6,4 5 3 11 6 NW 1022,0 10 0,0
17.10.2018 22:00:00 11,3 10,4 7,0 8 4 11 6 NNW 1021,7 10 0,0
17.10.2018 21:00:00 12,7 11,0 6,3 5 3 7 4 NW 1021,1 10 0,0
17.10.2018 20:00:00 12,1 10,4 6,9 5 3 11 6 NW 1020,8 10 0,0
17.10.2018 19:00:00 12,8 10,5 10,8 9 5 18 10 WNW 1020,3 10 0,0
17.10.2018 18:00:00 15,7 11,5 15,0 15 8 22 12 W 1020,0 10 0,0
17.10.2018 17:00:00 16,7 12,4 17,0 15 8 22 12 WNW 1019,8 10 0,0
17.10.2018 16:00:00 17,7 12,5 18,4 15 8 22 12 WNW 1019,5 10 0,0
17.10.2018 15:00:00 17,3 12,1 17,6 15 8 25 14 W 1019,4 10 0,0
17.10.2018 14:00:00 17,8 12,8 18,6 16 9 25 14 W 1019,2 10 0,0
17.10.2018 13:00:00 18,5 13,1 20,8 13 7 22 12 W 1019,2 10 0,0
17.10.2018 12:00:00 18,2 12,7 19,9 13 7 25 14 W 1019,2 10 0,0
17.10.2018 11:00:00 18,3 13,1 18,9 5 3 14 8 W 1019,0 10 0,0
17.10.2018 10:00:00 16,4 14,1 16,1 11 6 18 10 W 1018,8 10 0,0
17.10.2018 09:00:00 14,4 14,3 10,6 4 2 11 6 - 1018,5 4,5 0,0
17.10.2018 08:00:00 12,9 12,7 8,6 8 4 11 6 W 1018,2 3,0 0,0
17.10.2018 07:00:00 12,6 12,4 7,7 5 3 11 6 SSW 1018,0 3,2 0,0
17.10.2018 06:00:00 12,1 11,8 7,5 5 3 11 6 SSW 1017,7 3,5 0,0
17.10.2018 05:00:00 12,3 11,6 8,2 5 3 7 4 SSE 1017,1 7 0,0
17.10.2018 04:00:00 13,1 11,4 8,5 0 0 7 4 N 1017,3 10 0,0
17.10.2018 03:00:00 12,8 10,4 9,1 8 4 11 6 SSW 1017,4 10 0,0
17.10.2018 02:00:00 13,2 10,6 9,9 9 5 11 6 S 1017,4 10 0,0
17.10.2018 01:00:00 14,2 11,3 11,2 9 5 14 8 SSE 1017,2 10 0,0
17.10.2018 00:00:00 14,6 11,7 11,1 9 5 14 8 SSE 1017,4 10 0,0
16.10.2018 23:00:00 15,1 12,2 12,7 13 7 18 10 SSE 1017,5 10 0,0
16.10.2018 22:00:00 15,5 11,9 9,3 13 7 18 10 SE 1017,6 10 0,0
16.10.2018 21:00:00 14,5 12,8 9,2 4 2 7 4 E 1017,9 10 0,0
16.10.2018 20:00:00 14,7 12,5 10,0 5 3 7 4 E 1017,8 10 0,0
16.10.2018 19:00:00 17,3 13,1 12,0 5 3 7 4 ESE 1017,7 10 0,0
16.10.2018 18:00:00 20,7 12,8 18,4 8 4 14 8 SSE 1017,6 10 0,0
16.10.2018 17:00:00 22,2 12,7 21,6 11 6 14 8 S 1017,5 10 0,0
16.10.2018 16:00:00 23,0 12,1 23,4 11 6 18 10 S 1017,6 10 0,0
16.10.2018 15:00:00 23,1 12,1 24,2 9 5 18 10 S 1017,7 10 0,0
16.10.2018 14:00:00 22,2 13,3 23,7 9 5 14 8 S 1017,8 10 0,0
16.10.2018 13:00:00 21,1 13,7 22,0 11 6 14 8 S 1017,9 10 0,0
16.10.2018 12:00:00 17,6 12,8 17,9 11 6 14 8 SSE 1017,9 10 0,0
16.10.2018 11:00:00 15,7 13,0 15,3 9 5 14 8 SSE 1017,7 10 0,0
16.10.2018 10:00:00 13,8 12,9 11,9 9 5 11 6 SE 1017,5 7 0,0
16.10.2018 09:00:00 12,3 12,1 8,4 5 3 7 4 ESE 1017,4 10 0,0
16.10.2018 08:00:00 13,0 12,8 8,6 4 2 11 6 ESE 1016,9 2,6 0,0
16.10.2018 07:00:00 11,4 11,1 8,8 5 3 11 6 SE 1016,7 1,7 0,0
16.10.2018 06:00:00 11,8 11,6 8,3 5 3 7 4 SE 1016,4 3,8 0,0
16.10.2018 05:00:00 12,8 12,5 10,1 5 3 7 4 SE 1016,2 4,0 0,0
16.10.2018 04:00:00 12,4 12,1 9,4 4 2 7 4 NE 1016,1 3,8 0,0
16.10.2018 03:00:00 13,6 13,4 10,4 8 4 7 4 S 1016,1 4,2 0,0
16.10.2018 02:00:00 13,5 13,3 8,3 2 1 4 2 - 1015,8 4,2 0,0
16.10.2018 01:00:00 14,5 14,3 9,0 4 2 7 4 - 1015,4 6 0,0
16.10.2018 00:00:00 14,8 14,3 9,6 5 3 11 6 S 1015,3 7 0,0
15.10.2018 23:00:00 14,9 13,8 10,9 5 3 7 4 S 1015,0 10 0,0
15.10.2018 22:00:00 17,0 14,9 14,0 4 2 7 4 SE 1014,4 10 0,0
15.10.2018 21:00:00 17,0 14,7 14,8 2 1 7 4 - 1014,2 10 0,0
15.10.2018 20:00:00 17,4 15,0 16,0 9 5 14 8 W 1013,8 10 0,0
15.10.2018 19:00:00 17,8 14,9 16,8 13 7 22 12 W 1013,4 10 0,0
15.10.2018 18:00:00 19,1 14,3 18,3 15 8 22 12 W 1012,6 10 0,0
15.10.2018 17:00:00 20,6 15,1 19,8 11 6 25 14 W 1012,2 10 0,0
15.10.2018 16:00:00 21,3 14,1 20,6 18 10 29 16 SSW 1011,8 10 0,0
15.10.2018 15:00:00 22,0 13,8 22,9 22 12 29 16 S 1011,5 10 0,0
15.10.2018 14:00:00 22,3 14,2 23,4 21 11 29 16 SSW 1011,1 10 0,0
15.10.2018 13:00:00 21,6 13,7 23,0 18 10 29 16 SSW 1011,1 10 0,0
15.10.2018 12:00:00 20,1 12,6 20,8 22 12 29 16 S 1010,9 10 0,0
15.10.2018 11:00:00 17,8 10,8 17,8 18 10 29 16 S 1010,7 10 0,0
15.10.2018 10:00:00 16,4 10,7 15,7 13 7 22 12 SSE 1010,3 10 0,0
15.10.2018 09:00:00 14,4 10,0 12,6 15 8 22 12 SE 1009,7 10 0,0
15.10.2018 08:00:00 13,9 9,6 11,2 9 5 14 8 SE 1009,3 10 0,0
15.10.2018 07:00:00 13,8 9,6 11,2 9 5 18 10 SE 1008,9 10 0,0
15.10.2018 06:00:00 14,3 9,8 12,4 15 8 18 10 SE 1008,8 10 0,0
15.10.2018 05:00:00 14,5 9,9 12,3 16 9 25 14 SE 1008,7 10 0,0
15.10.2018 04:00:00 14,6 10,1 9,5 8 4 11 6 SE 1008,5 10 0,0
15.10.2018 03:00:00 15,5 10,3 10,1 5 3 11 6 SE 1008,6 10 0,0
15.10.2018 02:00:00 15,3 10,9 10,9 8 4 11 6 ESE 1008,5 10 0,0
15.10.2018 01:00:00 15,9 11,3 10,4 8 4 11 6 SE 1008,3 10 0,0
15.10.2018 00:00:00 16,1 11,3 12,5 5 3 7 4 S 1008,2 10 0,0
14.10.2018 23:00:00 17,8 11,9 15,6 9 5 14 8 SSE 1008,0 10 0,0
14.10.2018 22:00:00 17,5 11,7 12,7 5 3 11 6 SE 1007,7 10 0,0
14.10.2018 21:00:00 16,0 11,3 12,2 9 5 14 8 SE 1007,5 10 0,0
14.10.2018 20:00:00 17,9 11,8 15,3 13 7 18 10 SSE 1007,1 10 0,0
14.10.2018 19:00:00 19,1 12,4 16,9 15 8 22 12 S 1006,8 10 0,0
14.10.2018 18:00:00 21,1 13,0 19,2 16 9 29 16 S 1006,4 10 0,0
14.10.2018 17:00:00 22,5 12,6 20,9 21 11 36 19 S 1006,2 10 0,0
14.10.2018 16:00:00 22,7 12,2 21,5 29 16 47 25 S 1006,1 10 0,0
14.10.2018 15:00:00 23,4 13,2 23,6 29 16 43 23 S 1006,1 10 0,0
14.10.2018 14:00:00 22,0 13,3 22,3 28 15 43 23 S 1006,3 10 0,0
14.10.2018 13:00:00 21,0 14,0 21,3 29 16 40 21 SSE 1006,8 10 0,0
14.10.2018 12:00:00 19,8 13,4 20,1 24 13 36 19 SSE 1007,2 10 0,0
14.10.2018 11:00:00 18,4 12,9 18,6 16 9 29 16 SSE 1007,5 10 0,0
14.10.2018 10:00:00 16,9 12,7 16,2 16 9 25 14 SE 1007,8 10 0,0
14.10.2018 09:00:00 15,6 12,1 14,3 18 10 25 14 SE 1008,2 10 0,0
14.10.2018 08:00:00 15,0 11,8 13,5 16 9 22 12 SE 1008,2 10 0,0
14.10.2018 07:00:00 15,2 11,7 13,3 11 6 14 8 SE 1008,6 10 0,0
14.10.2018 06:00:00 15,3 11,8 13,2 11 6 14 8 SSE 1009,2 10 0,0
14.10.2018 05:00:00 15,9 12,0 13,7 9 5 22 12 SSE 1009,4 10 0,0
14.10.2018 04:00:00 16,5 12,0 14,8 16 9 25 14 SE 1009,7 10 0,0
14.10.2018 03:00:00 16,5 12,2 15,2 18 10 25 14 SE 1010,6 10 0,0
14.10.2018 02:00:00 17,6 12,6 15,6 16 9 22 12 SSE 1011,1 10 0,0
14.10.2018 01:00:00 17,1 12,8 15,4 15 8 29 16 SE 1011,7 10 0,0
14.10.2018 00:00:00 18,1 13,5 16,5 16 9 25 14 SSE 1011,9 10 0,0
13.10.2018 23:00:00 18,5 14,1 16,5 15 8 22 12 SE 1012,3 10 0,0
13.10.2018 22:00:00 18,9 14,5 17,0 16 9 22 12 SE 1012,4 10 0,0
13.10.2018 21:00:00 19,5 14,6 17,1 15 8 22 12 SSE 1012,6 10 0,0
13.10.2018 20:00:00 20,4 15,2 18,2 15 8 22 12 SE 1012,7 10 0,0
13.10.2018 19:00:00 20,6 15,7 18,2 13 7 18 10 SE 1012,9 10 0,0
13.10.2018 18:00:00 22,6 16,4 21,0 15 8 29 16 SE 1013,0 10 0,0
13.10.2018 17:00:00 25,1 16,0 23,9 21 11 32 18 SSE 1013,6 10 0,0
13.10.2018 16:00:00 25,3 16,1 24,9 22 12 32 18 S 1014,2 10 0,0
13.10.2018 15:00:00 25,1 17,1 24,6 22 12 36 19 SSE 1014,9 10 0,0
13.10.2018 14:00:00 24,7 16,2 24,8 26 14 36 19 SSE 1015,7 10 0,0
13.10.2018 13:00:00 23,7 16,6 24,0 22 12 32 18 SSE 1016,5 10 0,0
13.10.2018 12:00:00 21,8 16,0 22,1 21 11 29 16 SSE 1017,0 10 0,0
13.10.2018 11:00:00 20,0 15,6 20,3 21 11 32 18 SSE 1017,3 10 0,0
13.10.2018 10:00:00 18,5 15,0 18,0 18 10 25 14 SSE 1017,5 10 0,0
13.10.2018 09:00:00 16,9 14,3 15,3 16 9 25 14 SSE 1017,3 10 0,0
13.10.2018 08:00:00 16,6 14,1 15,1 21 11 29 16 S 1017,2 10 0,0
13.10.2018 07:00:00 16,6 14,0 15,0 21 11 29 16 SSE 1017,2 10 0,0
13.10.2018 06:00:00 16,7 14,0 15,3 21 11 32 18 SSE 1017,2 10 0,0
13.10.2018 05:00:00 17,2 14,2 15,6 24 13 36 19 S 1017,6 10 0,0
13.10.2018 04:00:00 17,2 14,3 15,7 21 11 29 16 SSE 1017,6 10 0,0
13.10.2018 03:00:00 17,3 14,6 15,8 21 11 32 18 SSE 1017,5 10 0,0
13.10.2018 02:00:00 17,4 14,9 15,5 15 8 25 14 SSE 1017,6 10 0,0
13.10.2018 01:00:00 17,6 15,0 16,1 16 9 25 14 S 1017,2 10 0,0
13.10.2018 00:00:00 18,5 15,4 16,8 18 10 25 14 S 1017,6 10 0,0
12.10.2018 23:00:00 18,9 15,5 17,4 22 12 32 18 S 1017,7 10 0,0
12.10.2018 22:00:00 19,4 15,7 17,9 22 12 32 18 SSE 1017,3 10 0,0
12.10.2018 21:00:00 20,1 15,8 18,5 24 13 36 19 SSE 1017,2 10 0,0
12.10.2018 20:00:00 19,8 15,6 18,0 21 11 29 16 SSE 1017,1 10 0,0
12.10.2018 19:00:00 19,8 15,1 18,0 21 11 29 16 SSE 1016,8 10 0,0

tt = temperature
td = dewpoint
tt 5cm = temperature 5cm
ff = wind speed
fx = gusts
dd = wind direction
ppp = reduced air pressure
vv = visibility
rr = precipitation

Next stations